This is the latest recevied weather packets stored in our database for station/object KC3BHK-2. If no packets are shown the sender has not sent any weather packets the latest 10 day(s).
| Time | Temp. | Humidity | Pressure | Rain* | Wind** | Luminosity | Snow |
|---|---|---|---|---|---|---|---|
| 1777636034 | 8.33° C | - | - | 0 mm | 1.34 m/s, 295° | - | - |
| 1777635726 | 8.33° C | - | - | 0 mm | 0.45 m/s, 23° | - | - |
| 1777635421 | 7.78° C | - | - | 0 mm | 0 m/s | - | - |
| 1777635116 | 7.78° C | - | - | 0 mm | 1.34 m/s, 263° | - | - |
| 1777634811 | 7.78° C | - | - | 0 mm | 3.58 m/s, 276° | - | - |
| 1777634201 | 6.67° C | - | - | 0 mm | 1.34 m/s, 298° | - | - |
| 1777633894 | 7.22° C | - | - | 0 mm | 1.34 m/s, 295° | - | - |
| 1777633589 | 6.11° C | - | - | 0 mm | 2.24 m/s, 293° | - | - |
| 1777633282 | 6.11° C | - | - | 0 mm | 1.79 m/s, 294° | - | - |
| 1777632977 | 5.56° C | - | - | 0 mm | 1.34 m/s, 298° | - | - |
| 1777632672 | 6.11° C | - | - | 0 mm | 0.89 m/s, 263° | - | - |
| 1777632367 | 5° C | - | - | 0 mm | 1.79 m/s, 259° | - | - |
| 1777632059 | 5° C | - | - | 0 mm | 0.45 m/s, 318° | - | - |
| 1777631754 | 5° C | - | - | 0 mm | 0.45 m/s, 274° | - | - |
| 1777631144 | 5° C | - | - | 0 mm | 2.24 m/s, 276° | - | - |
| 1777630839 | 5.56° C | - | - | 0 mm | 0.45 m/s, 273° | - | - |
| 1777630534 | 5° C | - | - | 0 mm | 1.34 m/s, 277° | - | - |
| 1777630226 | 5° C | - | - | 0 mm | 2.24 m/s, 274° | - | - |
| 1777629921 | 5.56° C | - | - | 0 mm | 1.34 m/s, 270° | - | - |
| 1777629616 | 5° C | - | - | 0 mm | 1.79 m/s, 280° | - | - |
| 1777629006 | 5° C | - | - | 0 mm | 1.34 m/s, 274° | - | - |
| 1777628701 | 5° C | - | - | 0 mm | 1.34 m/s, 307° | - | - |
| 1777628392 | 5° C | - | - | 0 mm | 1.34 m/s, 305° | - | - |
| 1777628086 | 5.56° C | - | - | 0 mm | 1.79 m/s, 264° | - | - |
| 1777627781 | 4.44° C | - | - | 0 mm | 2.68 m/s, 276° | - | - |
* Rain latest hour (hover to see other rain measurements)
** Current wind speed in m/s (hover to see current wind gust speed)